www.pogodaiklimat.ru

Погода и климат >> Архив погоды >> Россия >> Приморский край >> Пограничный


ПОГОДА в Пограничном

  • Прогноз погоды в Пограничном
  • Монитор погоды в Пограничном
  • Климат города

АРХИВ ПОГОДЫ в Пограничном

Время (UTC), дата Ветер
(напр.,м/с)
 
Видим.   Явления Облачность Т
(С)
Тd
(С)
f
(%)
Тe
(С)
Тes
(С)
Комфортность P
(гПа)
Po
(гПа)
Тmin
(С)
Tmax
(С)
R
(мм)
R24
(мм)
S
(см)
00 8.12 З 3
{10}
50 км ясно -17.3 -28.5 37 -24 -24 1025.8 996.4
03 8.12 З 5-11
{11}
50 км 3/0
[Ci fib]
-14.4 -28.7 29 -23 -21 1025.3 996.3
06 8.12 З 6-12
{14}
50 км ясно -14.3 -28.3 29 -24 -23 1024.5 995.5
09 8.12 З 1
{12}
20 км ясно -16.2 -27.8 36 -19 -19 1026.2 996.9 -14.1
12 8.12 З 2 20 км ясно -16.3 -27.2 38 -22 -22 1028.0 998.7
15 8.12 З 4 20 км ясно -16.3 -26.3 42 -24 -24 1029.0 999.7
18 8.12 З 2 20 км ясно -17.4 -26.2 46 -23 -23 1030.0 1000.5
21 8.12 Ю 1 20 км ясно -17.8 -26.9 45 -21 -21 1030.0 1000.5 -17.8
00 9.12 СЗ 1 50 км ясно -19.3 -24.9 61 -22 -22 1031.5 1001.7 -21.2
03 9.12 З 3 50 км 3/3 600 м
[Cu hum]
-11.3 -25.2 31 -17 -15 1030.8 1002.0
06 9.12 З 3
{11}
50 км 3/0
[Ci fib]
-11.3 -24.9 32 -17 -16 1031.1 1002.3
09 9.12 СЗ 2 20 км ясно -13.9 -24.6 40 -19 -19 1032.8 1003.6 -10.8
12 9.12 СЗ 2
{12}
20 км ясно -13.9 -24.9 39 -19 -19 1034.4 1005.2
15 9.12 штиль 0 20 км ясно -15.8 -24.4 48 -16 -16 1036.0 1006.6
18 9.12 З 2 20 км ясно -18.1 -24.5 57 -24 -24 1037.3 1007.5
21 9.12 З 2 20 км ясно -20.1 -24.5 68 -26 -26 1037.7 1007.7 -20.3
00 10.12 З 2 50 км ясно -18.0 -23.5 62 -23 -23 1038.4 1008.6
03 10.12 З 2 50 км ясно -9.8 -23.3 32 -14 -11 1036.7 1007.8
06 10.12 СЗ 2 50 км ясно -9.3 -23.2 31 -13 -12 1035.7 1006.9
09 10.12 З 1 20 км ясно -12.9 -23.0 42 -15 -15 1037.3 1008.1 -9.0
12 10.12 З 2 20 км ясно -16.7 -22.1 63 -22 -22 1038.1 1008.5
15 10.12 З 3 20 км ясно -18.6 -22.6 71 -26 -26 1038.7 1008.9
18 10.12 штиль 0 20 км ясно -18.9 -23.0 70 -19 -19 1038.1 1008.2
21 10.12 З 2 20 км ясно -20.4 -23.7 75 -26 -26 1037.4 1007.4 -21.0
00 11.12 З 1 20 км 3/0
[Cc]
-17.6 -21.8 70 -20 -20 1037.2 1007.5
03 11.12 В 2 50 км 8/0
[Ci fib]
-10.4 -21.0 41 -15 -12 1034.5 1005.7
06 11.12 В 2 50 км 8/0
[Ci fib]
-9.3 -21.8 35 -13 -13 1031.5 1002.9
09 11.12 СВ 2 20 км 10/0
[Cs]
-12.5 -19.7 55 -17 -17 1031.8 1002.8 -8.8
12 11.12 СВ 1 20 км 10/0
[As trans Cs]
-13.3 -19.3 61 -16 -16 1032.0 1002.9
15 11.12 З 1 20 км ясно -16.9 -20.5 74 -20 -20 1031.7 1002.2
18 11.12 З 3 20 км ясно -18.0 -21.1 77 -25 -25 1031.3 1001.7
21 11.12 З 2 20 км ясно -19.2 -22.3 76 -25 -25 1031.1 1001.3 -19.7
00 12.12 З 1 50 км ясно -17.4 -20.8 75 -20 -20 1031.5 1001.9 -20.0
03 12.12 СЗ 2 50 км ясно -8.7 -21.8 34 -13 -9 1029.1 1000.6
06 12.12 В 1 50 км 3/0
[Ci fib]
-7.5 -22.0 30 -9 -8 1027.4 999.1
09 12.12 СЗ 1 20 км ясно -11.9 -21.2 46 -14 -14 1028.6 999.8 -6.7
12 12.12 З 3 20 км ясно -16.6 -21.4 66 -24 -24 1029.6 1000.3
15 12.12 З 3 20 км ясно -17.2 -21.3 70 -24 -24 1028.9 999.5
18 12.12 З 2 20 км ясно -17.2 -21.0 72 -23 -23 1027.8 998.4
21 12.12 З 1 20 км ясно -15.9 -20.3 69 -19 -19 1026.9 997.6 -17.4
00 13.12 З 1 20 км 9/0
[Cs]
-15.2 -18.3 77 -18 -17 1026.7 997.6
03 13.12 В 2 20 км 6/4 600 м
[Cb cap Cs]
-8.7 -14.6 62 -13 -11 1025.3 996.9
06 13.12 С 2 20 км 10/9 600 м
[Cb cap Ci fib]
-8.0 -16.1 52 -12 -12 1024.9 996.6
09 13.12 З 1 20 км 3/0
[Ci fib]
-11.2 -17.9 58 -13 -13 1027.7 999.0 -7.6
12 13.12 З 2 20 км ясно -14.1 -18.0 72 -19 -19 1029.6 1000.5
15 13.12 З 1 20 км ясно -14.5 -18.6 71 -17 -17 1031.1 1001.9
18 13.12 СЗ 2 20 км ясно -14.6 -20.4 61 -20 -20 1032.4 1003.2
21 13.12 З 3 20 км ясно -15.2 -20.4 64 -22 -22 1033.4 1004.1 -15.3
00 14.12 З 4 50 км ясно -14.0 -20.7 57 -22 -21 1034.6 1005.4 -15.6
03 14.12 З 4
{10}
50 км ясно -10.7 -21.3 41 -18 -15 1034.4 1005.6
06 14.12 З 3 50 км ясно -10.2 -21.3 40 -16 -15 1034.0 1005.2
09 14.12 З 2 20 км ясно -13.2 -20.7 53 -18 -18 1034.9 1005.8 -9.5
12 14.12 З 3 20 км ясно -16.6 -21.3 67 -24 -24 1035.3 1005.8
15 14.12 штиль 0 20 км ясно -16.1 -21.0 66 -16 -16 1034.7 1005.2
18 14.12 З 3 20 км ясно -13.0 -19.2 60 -19 -19 1033.0 1003.9
21 14.12 ЮЗ 1 20 км ясно -12.8 -19.9 55 -15 -15 1031.8 1002.8 -17.7

 

Местоположение метеостанции Пограничный (Приморский край, Россия): широта 44.40 долгота 131.30 высота над уровнем моря 211 м.

В архиве по умолчанию представлена погода в Пограничном за последнюю неделю. Архивные данные за месяц целиком и за предыдущие месяцы, начиная с января 2011 года, Вы можете получить, выбрав интересующий диапазон дат из раскрывающегося списка и нажав кнопку "Ввод!".


*Определитесь, кто Вы:
робот инопланетянин человек

Внимание! Время в таблицах - всемирное. Для получения местного времени необходимо прибавить поправку, которая в Пограничном равна 10 ч.

Смотрите также архив погоды в соседних городах и на ближайших метеорологических станциях:

Погода в Suifenhe (Китай) (12 км)
Погода в Полтавке (Приморский край, Россия) (41 км)
Погода в Хороль (Приморский край, Россия) (56 км)
Погода в Астраханке (Приморский край, Россия) (66 км)
Погода в Тимирязевском (Приморский край, Россия) (75 км)
Погода в Jixi (Китай) (102 км)
Погода в Турьем Роге (Приморский край, Россия) (105 км)
Погода в Спасск-Дальнем (Приморский край, Россия) (122 км)
Погода в Барабаше (Приморский край, Россия) (134 км)
Погода в Mudanjiang (Китай) (136 км)

Пояснения к столбцам:

Ветер - указаны скорость ветра в м/с - средняя за 10 мин, порывы в срок и между сроками (в фигурных скобках) и направление, откуда дует ветер: С - северный, СВ - северо-восточный, В - восточный, ЮВ - юго-восточный, Ю - южный, ЮЗ - юго-западный, З - западный, СЗ - северо-западный.
Видимость - горизонтальная дальность видимости в метрах или километрах. При видимости от 1 до 10 км при отсутствии осадков обычно наблюдается дымка, при ухудшении видимости до 1 км и менее - туман. В сухую погоду видимость может ухудшаться дымом, пылью или мглою.
Явления - указаны атмосферные явления, наблюдавшиеся в срок или в последний час перед сроком; фигурными скобками обозначены явления, наблюдавшиеся между сроками (за 1-3 часа до срока); квадратными скобками обозначены град или гололедные отложения с указанием их диаметра в мм.
Облачность - указаны через наклонную черту общая и нижняя облачность в баллах и высота нижней границы облаков в метрах; квадратными скобками обозначены формы облаков: Ci - перистые, Cs - перисто-слоистые, Cc - перисто-кучевые, Ac - высококучевые, As - высокослоистые, Sc - слоисто-кучевые, Ns - слоисто-дождевые, Cu - кучевые, Cb - кучево-дождевые. Подробнее классификацию облаков см. в Атласе облаков (PDF).
T - Температура воздуха - температура, измеренная на высоте 2 м над землей.
Td - Температура точки росы - температура, при понижении до которой содержащийся в воздухе водяной пар достигнет насыщения.
f - Относительная влажность воздуха - влажноcть воздуха, измеренная на высоте 2 м над землей.
Te - Эффективная температура - температура, которую ощущает одетый по сезону человек в тени. Характеристика душности погоды. При расчете учитывается влияние влажности воздуха и скорости ветра на теплоощущения человека.
Tes - Эффективная температура на солнце - температура, которую ощущает человек, с поправкой на солнечный нагрев. Характеристика знойности погоды. Зависит от высоты солнца над горизонтом, облачности и скорости ветра. Ночью, в пасмурную погоду, а также при ветре 12 м/с и более поправка равна нулю.
P - Атмосферное давление - приведенное к уровню моря атмосферное давление.
Po - Атмосферное давление - измеренное на уровне метеостанции атмосферное давление.
Tmin - Минимальная температура - минимум температуры воздуха на высоте 2 м над землей.
Tmax - Максимальная температура - максимум температуры воздуха на высоте 2 м над землей.
R - Количество осадков - Количество выпавших осадков за период времени, мм. При наведении курсора мыши на число - период времени, за который выпало указанное количество осадков.
R24 - Количество осадков - Количество выпавших осадков за 24 часа, мм.
S - Снежный покров - Высота снежного покрова, см. При наведении курсора мыши на число - состояние снежного покрова и степень покрытия местности в баллах.